This is the latest recevied weather packets stored in our database for station/object KD4MBW. If no packets are shown the sender has not sent any weather packets the latest 10 day(s).
| Time | Temp. | Humidity | Pressure | Rain* | Wind** | Luminosity | Snow |
|---|---|---|---|---|---|---|---|
| 1778183734 | 25.56° C | 96% | 1014 hPa | 0 mm | - | 131 W/m² | - |
| 1778183431 | 26.11° C | 97% | 1013.9 hPa | 0 mm | - | 120 W/m² | - |
| 1778183127 | 26.11° C | 97% | 1013.7 hPa | 0 mm | - | 294 W/m² | - |
| 1778182824 | 25.56° C | 98% | 1013.8 hPa | 0 mm | - | 79 W/m² | - |
| 1778182521 | 25.56° C | 98% | 1013.9 hPa | 0 mm | - | 112 W/m² | - |
| 1778182218 | 25° C | 99% | 1013.9 hPa | 0 mm | - | 149 W/m² | - |
| 1778181914 | 25° C | 99% | 1013.7 hPa | 0 mm | - | 156 W/m² | - |
| 1778181611 | 24.44° C | 99% | 1014.1 hPa | 0 mm | - | 99 W/m² | - |
| 1778181306 | 24.44° C | 99% | 1014 hPa | 0 mm | - | 157 W/m² | - |
| 1778181003 | 24.44° C | 99% | 1013.8 hPa | 0 mm | - | 248 W/m² | - |
| 1778180701 | 24.44° C | 99% | 1013.9 hPa | 0 mm | - | 163 W/m² | - |
| 1778180400 | 24.44° C | 99% | 1013.7 hPa | 0 mm | - | 181 W/m² | - |
| 1778180096 | 24.44° C | 99% | 1013.6 hPa | 0 mm | - | 156 W/m² | - |
| 1778179793 | 24.44° C | 99% | 1014.2 hPa | 13.72 mm | - | 51 W/m² | - |
| 1778179491 | 24.44° C | 99% | 1014.1 hPa | 21.59 mm | - | 184 W/m² | - |
| 1778179189 | 26.11° C | 98% | 1014.3 hPa | 4.83 mm | - | 102 W/m² | - |
| 1778178885 | 26.67° C | 92% | 1014.6 hPa | 0 mm | - | 41 W/m² | - |
| 1778178582 | 26.67° C | 91% | 1014.4 hPa | 0 mm | - | 45 W/m² | - |
| 1778178278 | 27.22° C | 91% | 1014.5 hPa | 0 mm | - | 279 W/m² | - |
| 1778177974 | 27.22° C | 90% | 1014.5 hPa | 0 mm | - | 276 W/m² | - |
| 1778177671 | 26.67° C | 91% | 1014.4 hPa | 0 mm | - | 235 W/m² | - |
| 1778177368 | 26.67° C | 91% | 1014.8 hPa | 0 mm | - | 232 W/m² | - |
| 1778177065 | 27.22° C | 91% | 1014.8 hPa | 0 mm | - | 388 W/m² | - |
| 1778176760 | 26.67° C | 91% | 1014.6 hPa | 0 mm | - | 274 W/m² | - |
| 1778176457 | 26.67° C | 91% | 1014.6 hPa | 0 mm | - | 322 W/m² | - |
* Rain latest hour (hover to see other rain measurements)
** Current wind speed in m/s (hover to see current wind gust speed)